Waarnemingen

Advertentie
Mijn weer
Putbus, Duitsland (10093): temperatuur & dauwpunt: 19.06.2017 05:00:00 - 25.06.2017 05:00:00 (CEST)Putbus, Duitsland (10093): temperatuur 5cm & temperatuur -5cm: 19.06.2017 05:00:00 - 25.06.2017 05:00:00 (CEST)Putbus, Duitsland (10093): temperatuur -20cm & temperatuur -100cm: 19.06.2017 05:00:00 - 25.06.2017 05:00:00 (CEST)Putbus, Duitsland (10093): windsnelheid & windstoten: 19.06.2017 05:00:00 - 25.06.2017 05:00:00 (CEST)Putbus, Duitsland (10093): windrichting: 19.06.2017 05:00:00 - 25.06.2017 05:00:00 (CEST)Putbus, Duitsland (10093): luchtdruk: 19.06.2017 05:00:00 - 25.06.2017 05:00:00 (CEST)Putbus, Duitsland (10093): zicht: 19.06.2017 05:00:00 - 25.06.2017 05:00:00 (CEST)Putbus, Duitsland (10093): Zonneschijnduur: 19.06.2017 05:00:00 - 25.06.2017 05:00:00 (CEST)Putbus, Duitsland (10093): neerslag: 19.06.2017 05:00:00 - 25.06.2017 05:00:00 (CEST)
Datum & Tijd tt [°C] td [°C] tt 5cm [°C] tt -5cm [°C] tt -20cm [°C] tt -100cm [°C] ff [km/u] ff [kn] fx [km/u] fx [kn] dd ppp [hPa] vv [km] sd [min] rr [mm]
25.06.2017 05:00:00 13,1 11,3 12,6 13,5 15,7 15,6 14 7 22 12 ZW 1007,8 28 0 0,0
25.06.2017 04:00:00 13,1 11,1 12,4 13,4 15,8 15,6 7 4 15 8 ZW 1008,3 23 0 0,0
25.06.2017 03:00:00 12,8 10,7 11,4 13,2 16,0 15,6 10 5 19 11 WZW 1008,7 23 0 0,0
25.06.2017 02:00:00 13,1 10,0 12,0 13,3 16,3 15,6 13 7 23 13 WZW 1009,0 34 0 0,0
25.06.2017 01:00:00 12,6 10,7 11,9 13,2 16,6 15,6 10 6 22 12 W 1009,6 27 0 0,0
25.06.2017 00:00:00 12,7 10,5 11,1 13,4 17,0 15,6 12 7 24 13 WZW 1009,4 25 0 0,0
24.06.2017 23:00:00 13,5 11,3 11,7 14,1 17,3 15,6 16 9 23 12 W 1009,3 35 0 0,0
24.06.2017 22:00:00 14,2 11,5 12,6 15,1 17,6 15,6 14 8 29 16 W 1009,1 30 20 0,0
24.06.2017 21:00:00 15,2 12,4 14,0 16,7 17,8 15,6 16 9 40 22 W 1008,6 34 10 0,0
24.06.2017 20:00:00 16,0 13,8 15,5 17,7 17,8 15,7 27 15 47 25 W 1008,4 26 7 0,0
24.06.2017 19:00:00 16,6 14,6 16,5 18,2 17,8 15,7 25 13 43 23 WZW 1007,6 18 0 2,1
24.06.2017 18:00:00 16,6 15,4 16,6 18,4 17,8 15,7 16 9 31 17 WZW 1007,7 7 0 1,1
24.06.2017 17:00:00 16,6 15,6 16,7 18,3 17,8 15,7 18 10 38 20 W 1007,9 2,7 0 1,8
24.06.2017 16:00:00 17,6 14,9 17,3 18,8 17,7 15,7 21 12 38 21 WZW 1007,8 12 0 0,0
24.06.2017 15:00:00 17,3 15,6 17,5 18,8 17,6 15,7 16 8 36 20 ZW 1007,9 10 0 0,6
24.06.2017 14:00:00 18,1 15,3 19,4 19,8 17,4 15,7 19 10 43 23 WZW 1007,9 12 0 0,0
24.06.2017 13:00:00 17,5 14,9 18,6 19,2 17,1 15,7 21 11 35 19 WZW 1008,3 13 1 0,0
24.06.2017 12:00:00 17,1 14,7 18,7 18,3 16,9 15,7 18 10 32 17 ZW 1008,4 10 0 0,0
24.06.2017 11:00:00 16,7 14,3 16,9 18,1 16,7 15,7 17 9 32 18 ZW 1008,6 17 0 0,0
24.06.2017 10:00:00 16,6 14,2 17,6 17,2 16,5 15,7 17 9 36 19 WZW 1008,7 14 0 0,0
24.06.2017 09:00:00 16,0 13,7 16,1 16,6 16,4 15,7 21 12 36 20 WZW 1008,8 14 0 0,0
24.06.2017 08:00:00 15,4 13,5 15,3 15,8 16,4 15,7 19 10 31 17 WZW 1008,9 12 0 0,0
24.06.2017 07:00:00 14,9 13,3 14,7 15,3 16,4 15,8 15 8 31 17 WZW 1009,3 9 0 0,0
24.06.2017 06:00:00 14,7 13,1 14,6 15,2 16,5 15,8 16 9 25 14 WZW 1009,6 10 0 0,0
24.06.2017 05:00:00 14,5 12,8 14,1 14,8 16,6 15,8 14 8 27 15 WZW 1009,8 13 0 0,0
24.06.2017 04:00:00 14,2 12,8 13,9 14,7 16,8 15,8 15 8 27 14 WZW 1010,0 11 0 0,0
24.06.2017 03:00:00 13,8 12,5 13,0 14,4 16,9 15,8 14 8 23 12 WZW 1010,1 10 0 0,0
24.06.2017 02:00:00 14,1 12,9 13,6 14,9 17,1 15,8 13 7 29 16 WZW 1010,5 8 0 0,0
24.06.2017 01:00:00 14,4 13,0 14,0 15,1 17,3 15,8 15 8 33 18 W 1010,8 8 0 0,0
24.06.2017 00:00:00 14,7 12,5 13,8 15,1 17,5 15,8 19 10 31 17 W 1011,0 13 0 0,0
23.06.2017 23:00:00 15,0 11,7 13,9 15,3 17,8 15,8 20 11 42 23 W 1011,2 23 0 0,0
23.06.2017 22:00:00 15,7 11,1 14,3 15,8 18,0 15,8 23 13 43 23 W 1011,3 28 0 0,0
23.06.2017 21:00:00 16,5 12,9 15,6 17,0 18,1 15,8 21 11 36 19 W 1011,0 23 0 0,0
23.06.2017 20:00:00 16,6 13,5 15,8 17,2 18,2 15,8 23 12 47 26 W 1010,5 20 0 0,0
23.06.2017 19:00:00 16,7 14,0 16,4 17,9 18,3 15,8 29 16 54 29 W 1010,2 16 0 0,0
23.06.2017 18:00:00 16,2 14,8 16,1 17,6 18,3 15,8 27 15 44 24 W 1009,7 8 0 0,1
23.06.2017 17:00:00 16,2 15,3 16,1 17,8 18,4 15,8 30 16 58 31 W 1009,2 3,4 0 2,1
23.06.2017 16:00:00 16,7 15,8 16,9 18,4 18,4 15,8 26 14 45 24 W 1008,9 2,5 0 1,3
23.06.2017 15:00:00 16,8 15,9 17,0 18,2 18,4 15,8 21 12 36 19 W 1008,6 2,4 0 1,3
23.06.2017 14:00:00 16,6 15,6 16,5 17,9 18,4 15,8 20 11 39 21 W 1008,2 3,8 0 0,3
23.06.2017 13:00:00 16,5 15,4 16,5 17,9 18,5 15,8 20 11 37 20 W 1007,9 3,5 0 0,7
23.06.2017 12:00:00 16,7 15,6 16,7 17,9 18,6 15,8 21 12 42 23 W 1007,3 3,6 0 0,0
23.06.2017 11:00:00 16,6 15,5 16,6 17,9 18,6 15,8 22 12 36 19 WNW 1006,7 3,6 0 0,0
23.06.2017 10:00:00 16,8 15,6 17,2 18,1 18,7 15,8 19 11 36 19 WNW 1005,8 4,9 0 0,0
23.06.2017 09:00:00 16,9 15,8 17,1 18,2 18,7 15,8 21 11 36 20 W 1005,1 5 0 0,0
23.06.2017 08:00:00 17,0 15,6 17,0 18,0 18,8 15,8 21 11 34 19 WNW 1004,5 3,7 0 0,0
23.06.2017 07:00:00 17,0 15,9 16,8 17,7 19,0 15,8 20 11 36 19 W 1003,9 2,6 0 0,3
23.06.2017 06:00:00 16,9 15,8 16,5 17,5 19,2 15,8 22 12 40 21 W 1003,7 3,3 0 3,2
23.06.2017 05:00:00 16,9 16,2 16,7 17,7 19,4 15,8 20 11 38 20 W 1003,6 1,8 0 4,7
23.06.2017 04:00:00 17,1 15,8 16,6 17,8 19,7 15,8 16 9 31 17 WZW 1003,2 8 0 0,0
23.06.2017 03:00:00 17,6 16,1 17,0 18,3 19,9 15,8 11 6 23 13 ZW 1003,2 11 0 1,0
23.06.2017 02:00:00 17,8 16,9 17,5 18,5 20,2 15,8 11 6 18 10 ZZW 1004,0 8 0 0,0
23.06.2017 01:00:00 17,7 17,0 17,3 18,6 20,6 15,8 8 4 19 10 ZZO 1003,5 4,7 0 0,2
23.06.2017 00:00:00 17,1 16,3 16,9 18,8 21,0 15,8 9 5 16 9 Z 1005,1 4,0 0 5,1
22.06.2017 23:00:00 16,3 15,4 16,2 19,0 21,5 15,8 5 3 13 7 ZZO 1005,9 2,1 0 4,9
22.06.2017 22:00:00 16,4 15,0 16,2 20,5 22,0 15,8 3 1 10 6 ONO 1006,2 10 0 0,3
22.06.2017 21:00:00 17,2 14,4 17,1 22,3 22,3 15,8 5 3 13 7 ZO 1006,4 17 0 0,0
22.06.2017 20:00:00 17,8 13,9 18,8 24,4 22,5 15,8 9 5 16 8 ZO 1007,0 22 0 0,0
22.06.2017 19:00:00 19,1 14,4 21,1 27,4 22,3 15,8 6 4 11 6 ZO 1007,3 24 37 0,0
22.06.2017 18:00:00 19,8 13,8 23,6 30,6 21,7 15,8 5 3 17 9 ZO 1007,8 25 56 0,0
22.06.2017 17:00:00 19,1 13,3 26,6 30,3 20,9 15,8 9 5 22 12 Z 1009,0 29 60 0,0
22.06.2017 16:00:00 19,0 13,7 25,3 27,1 20,3 15,8 12 7 24 13 Z 1009,4 19 54 0,0
22.06.2017 15:00:00 18,6 14,0 23,7 23,5 20,1 15,8 9 5 26 14 Z 1009,9 26 24 0,0
22.06.2017 14:00:00 15,4 12,8 15,0 19,6 20,2 15,7 16 9 31 17 Z 1009,2 10 0 0,2
22.06.2017 13:00:00 15,7 12,2 15,6 21,1 20,3 15,7 11 6 23 13 ZW 1012,5 20 0 0,4
22.06.2017 12:00:00 18,4 11,0 20,1 24,6 19,9 15,7 8 5 18 10 ZW 1012,2 31 7 0,0
22.06.2017 11:00:00 18,7 11,1 23,6 24,1 19,4 15,7 9 5 20 11 ZW 1012,5 29 3 0,0
22.06.2017 10:00:00 18,5 11,1 23,5 24,4 18,7 15,7 10 5 26 14 ZW 1013,0 34 56 0,0
22.06.2017 09:00:00 17,4 10,1 22,2 20,9 18,3 15,7 10 6 19 10 ZW 1013,1 23 60 0,0
22.06.2017 08:00:00 15,9 10,4 19,8 17,9 18,3 15,7 11 6 18 10 ZW 1013,6 29 42 0,0
22.06.2017 07:00:00 13,4 10,1 13,4 15,9 18,4 15,7 13 7 19 11 WZW 1014,0 24 0 0,0
22.06.2017 06:00:00 13,3 10,4 13,1 15,9 18,7 15,7 10 5 14 8 WZW 1014,3 23 0 0,0
22.06.2017 05:00:00 13,4 10,7 13,2 15,9 18,9 15,7 11 6 16 9 WZW 1014,5 19 0 0,0
22.06.2017 04:00:00 13,2 10,7 12,8 16,1 19,2 15,7 9 5 14 8 WZW 1014,8 25 0 0,0
22.06.2017 03:00:00 13,1 10,4 12,8 16,4 19,6 15,7 7 4 12 7 WZW 1014,8 26 0 0,0
22.06.2017 02:00:00 13,3 10,2 12,9 16,7 19,9 15,7 10 5 15 8 WZW 1015,3 30 0 0,0
22.06.2017 01:00:00 13,2 10,2 12,7 17,1 20,4 15,7 9 5 11 6 WZW 1015,4 27 0 0,0
22.06.2017 00:00:00 13,4 9,8 13,1 17,5 20,8 15,7 8 5 13 7 WZW 1015,6 28 0 0,0
21.06.2017 23:00:00 13,1 10,0 12,6 18,1 21,3 15,7 10 5 12 7 WZW 1015,8 28 0 0,0
21.06.2017 22:00:00 13,3 9,9 12,2 19,0 21,9 15,7 9 5 13 7 WZW 1016,0 30 0 0,0
21.06.2017 21:00:00 14,4 10,3 14,2 21,1 22,3 15,7 7 4 14 7 W 1016,0 28 0 0,0
21.06.2017 20:00:00 14,9 9,6 15,3 23,2 22,5 15,7 9 5 27 15 W 1016,0 32 35 0,0
21.06.2017 19:00:00 16,6 8,7 21,0 25,0 22,6 15,7 19 10 30 16 WNW 1016,5 33 26 0,0
21.06.2017 18:00:00 15,7 9,5 18,2 24,5 22,6 15,6 16 9 29 15 WNW 1016,8 29 1 0,0
21.06.2017 17:00:00 16,0 9,7 19,6 26,9 22,5 15,6 18 10 34 19 WNW 1016,8 21 19 0,0
21.06.2017 16:00:00 17,0 8,6 23,5 28,2 22,1 15,6 18 10 32 17 W 1017,3 25 21 0,0
21.06.2017 15:00:00 16,5 8,8 22,8 29,6 21,3 15,6 23 12 37 20 WNW 1017,6 15 46 0,0
21.06.2017 14:00:00 16,7 8,7 22,5 28,0 20,6 15,6 21 12 39 21 W 1017,9 14 36 0,0
21.06.2017 13:00:00 16,6 8,2 24,9 25,3 20,0 15,6 23 12 37 20 W 1018,1 18 23 0,0
21.06.2017 12:00:00 15,5 8,8 19,5 24,1 19,5 15,6 24 13 40 22 W 1018,0 23 18 0,0
21.06.2017 11:00:00 15,1 9,3 19,5 21,8 19,2 15,6 19 11 36 19 WNW 1017,8 21 6 0,0
21.06.2017 10:00:00 14,6 9,3 17,6 20,8 18,8 15,5 19 10 32 18 WNW 1017,7 22 12 0,0
21.06.2017 09:00:00 14,8 8,6 19,0 20,3 18,5 15,5 18 10 29 16 NW 1017,5 13 47 0,0
21.06.2017 08:00:00 13,7 8,6 17,5 17,8 18,3 15,5 18 10 31 17 NW 1017,5 21 53 0,0
21.06.2017 07:00:00 13,7 8,9 16,5 15,7 18,5 15,5 14 8 26 14 NW 1017,3 15 57 0,0
21.06.2017 06:00:00 11,9 8,2 12,2 13,9 19,0 15,5 14 7 22 12 WNW 1017,3 28 32 0,0
21.06.2017 05:00:00 11,5 7,8 10,0 14,0 19,5 15,5 13 7 20 11 WNW 1017,1 33 0 0,0
21.06.2017 04:00:00 11,7 7,4 10,1 14,2 20,0 15,4 13 7 21 12 WNW 1017,0 35 0 0,0
21.06.2017 03:00:00 12,0 8,0 10,5 14,8 20,6 15,4 14 8 21 12 WNW 1017,0 38 0 0,0
21.06.2017 02:00:00 11,8 8,0 9,9 15,4 21,3 15,4 11 6 21 11 WNW 1017,3 33 0 0,0
21.06.2017 01:00:00 12,1 8,5 10,3 16,5 22,0 15,4 10 5 21 11 WNW 1017,2 30 0 0,0
21.06.2017 00:00:00 12,4 9,0 10,6 17,9 22,8 15,4 9 5 13 7 WNW 1017,3 29 0 0,0
20.06.2017 23:00:00 13,2 9,7 11,6 19,2 23,5 15,4 9 5 16 8 NW 1017,3 28 0 0,0
20.06.2017 22:00:00 14,8 9,8 13,7 21,1 24,2 15,3 9 5 20 11 WNW 1017,2 31 0 0,0
20.06.2017 21:00:00 16,2 10,2 16,7 23,4 24,8 15,3 10 6 23 12 NW 1016,8 32 23 0,0
20.06.2017 20:00:00 16,8 9,8 17,2 25,3 25,2 15,3 17 9 35 19 WNW 1016,6 28 24 0,0
20.06.2017 19:00:00 17,9 9,4 21,8 28,6 25,4 15,3 24 13 36 19 WNW 1016,6 16 54 0,0
20.06.2017 18:00:00 18,3 8,4 22,9 30,2 25,4 15,3 25 13 45 25 NW 1016,6 10 58 0,0
20.06.2017 17:00:00 18,4 7,0 24,1 31,6 25,2 15,3 26 14 45 24 WNW 1016,7 6 60 0,0
20.06.2017 16:00:00 18,5 8,9 24,7 32,6 24,7 15,2 26 14 40 21 WNW 1016,6 7 60 0,0
20.06.2017 15:00:00 18,8 9,3 25,8 32,4 24,1 15,2 27 15 39 21 WNW 1016,5 17 60 0,0
20.06.2017 14:00:00 19,1 10,5 26,7 32,1 23,3 15,2 22 12 38 20 WNW 1016,3 8 60 0,0
20.06.2017 13:00:00 19,3 12,3 27,1 30,3 22,6 15,2 23 13 37 20 NW 1016,3 5 59 0,0
20.06.2017 12:00:00 18,9 12,6 25,6 27,6 22,0 15,2 24 13 41 22 WNW 1016,0 9 54 0,0
20.06.2017 11:00:00 19,1 14,1 25,5 26,4 21,5 15,1 20 11 37 20 NW 1015,6 6 54 0,0
20.06.2017 10:00:00 19,0 14,4 22,9 25,2 21,0 15,1 21 11 36 19 NW 1015,3 7 59 0,0
20.06.2017 09:00:00 19,8 15,4 24,7 23,6 20,7 15,1 21 11 33 18 NW 1014,6 7 60 0,0
20.06.2017 08:00:00 19,7 15,5 22,7 21,3 20,7 15,1 18 10 29 15 NW 1014,1 12 59 0,0
20.06.2017 07:00:00 19,4 16,2 20,8 19,8 20,9 15,0 13 7 27 14 WNW 1014,2 15 59 0,0
20.06.2017 06:00:00 18,9 17,1 18,6 18,9 21,2 15,0 16 9 26 14 WNW 1014,4 11 16 0,0
20.06.2017 05:00:00 17,1 15,7 16,0 18,5 21,6 15,0 12 7 14 8 WZW 1014,2 13 0 0,0
20.06.2017 04:00:00 16,8 15,3 15,6 18,9 22,1 15,0 11 6 12 7 WZW 1014,6 13 0 0,0
20.06.2017 03:00:00 16,9 15,8 15,5 19,3 22,6 15,0 7 4 9 5 ZW 1015,1 21 0 0,0
20.06.2017 02:00:00 16,8 15,7 15,6 19,9 23,2 15,0 7 4 10 5 ZW 1015,6 18 0 0,0
20.06.2017 01:00:00 17,0 16,0 14,9 20,7 23,9 15,0 3 2 8 4 ZZW 1016,2 16 0 0,0
20.06.2017 00:00:00 18,2 16,3 16,1 21,8 24,6 14,9 6 4 9 5 Z 1016,7 24 0 0,0
19.06.2017 23:00:00 18,1 16,0 16,2 23,1 25,4 14,9 5 3 8 4 Z 1017,2 24 0 0,0
19.06.2017 22:00:00 18,9 15,7 17,7 25,2 26,1 14,9 4 2 10 5 Z 1017,6 24 13 0,0
19.06.2017 21:00:00 21,1 16,5 21,5 28,4 26,6 14,9 6 3 11 6 Z 1017,8 24 60 0,0
19.06.2017 20:00:00 22,4 16,2 25,7 31,9 26,8 14,9 5 3 12 6 ZZO 1018,1 36 60 0,0
19.06.2017 19:00:00 23,9 17,4 29,1 34,0 26,9 14,9 5 3 14 7 ZZO 1018,6 28 42 0,0
19.06.2017 18:00:00 25,0 16,9 30,4 36,2 26,6 14,9 7 4 18 10 WNW 1019,1 28 56 0,0
19.06.2017 17:00:00 24,7 17,3 33,5 37,5 25,9 14,9 13 7 19 11 NW 1019,5 16 60 0,0
19.06.2017 16:00:00 25,5 17,2 35,5 37,7 25,1 14,9 10 5 22 12 WNW 1019,9 28 60 0,0
19.06.2017 15:00:00 25,5 16,7 33,5 37,1 24,0 14,9 14 7 23 12 W 1020,5 16 60 0,0
19.06.2017 14:00:00 25,6 17,5 33,7 35,8 22,9 14,9 13 7 26 14 W 1021,1 16 60 0,0
19.06.2017 13:00:00 24,9 16,9 32,8 33,7 21,7 14,8 10 6 24 13 WNW 1021,5 15 60 0,0
19.06.2017 12:00:00 23,7 16,2 32,2 31,1 20,7 14,8 17 9 27 15 WNW 1022,0 16 60 0,0
19.06.2017 11:00:00 22,7 15,4 30,2 28,4 19,7 14,8 18 10 29 16 W 1022,2 19 60 0,0
19.06.2017 10:00:00 21,9 15,1 28,1 25,6 19,0 14,8 16 9 26 14 WNW 1022,4 19 60 0,0
19.06.2017 09:00:00 21,2 16,0 27,7 22,8 18,5 14,8 11 6 21 12 W 1022,6 16 60 0,0
19.06.2017 08:00:00 19,7 16,2 23,6 20,0 18,3 14,8 10 6 16 9 W 1022,4 20 60 0,0
19.06.2017 07:00:00 18,1 15,7 19,7 17,6 18,4 14,8 10 5 18 10 W 1022,6 18 60 0,0
19.06.2017 06:00:00 16,9 15,2 16,5 16,3 18,7 14,8 11 6 17 9 WNW 1022,5 19 55 0,0
19.06.2017 05:00:00 15,5 14,4 14,3 15,7 19,1 14,8 14 8 18 10 W 1022,6 10 0 0,0

tt = temperatuur
td = dauwpunt
tt 5cm = temperatuur 5cm
tt -5cm = temperatuur -5cm
tt -20cm = temperatuur -20cm
tt -100cm = temperatuur -100cm
ff = windsnelheid
fx = windstoten
dd = windrichting
ppp = luchtdruk
vv = zicht
sd = Zonneschijnduur
rr = neerslag

Weerstations in de omgeving